Wautoma, WI

11:01 AM CDT on March 25, 2017 (GMT -0500)
Wautoma

Weather History for KY50 - January, 2014

Change the Weather History Date:

Friday, January 17, 2014

  Actual Average (KPCZ) Record (KPCZ)
Temperature  
Mean Temperature 11 °F -  
Max Temperature 20 °F 25 °F 48 °F (1973)
Min Temperature 1 °F 5 °F -32 °F (1982)
Degree Days  
Heating Degree Days 54    
Moisture  
Dew Point -    
Average Humidity    
Maximum Humidity    
Minimum Humidity    
Precipitation  
Precipitation 0.00 in - - ()
Sea Level Pressure  
Sea Level Pressure 29.80 in    
Wind  
Wind Speed 11 mph (WNW)    
Max Wind Speed 14 mph    
Max Gust Speed 22 mph    
Visibility 6 miles    
Events Snow    
Averages and records for this station are not official NWS values.
T = Trace of Precipitation, MM = Missing Value Source: NWS Daily Summary

Daily Weather History Graph

Daily Weather History Graph

Search for Another Location

Airport or City:

Trip Planner

Search our weather history database for the weather conditions in past years. The results will help you decide how hot, cold, wet, or windy it might be!

Date:

Astronomy

Jan. 17, 2014 Rise Set
Actual Time 7:27 AM CST 4:47 PM CST
Civil Twilight 6:55 AM CST 5:19 PM CST
Nautical Twilight 6:20 AM CST 5:54 PM CST
Astronomical Twilight 5:45 AM CST 6:29 PM CST
Moon 6:39 PM CST (1/17) 7:50 AM CST (1/17)
Length of Visible Light 10h 23m
Length of Day
9h 19m
Full, 98% of the Moon is Illuminated
Jan 17
Full
Jan 23
Last Quarter
Jan 30
New
Feb 6
First Quarter
Feb 14
Full

Hourly Weather History & Observations

Time (CST) Temp. Windchill Dew Point Humidity Pressure Visibility Wind Dir Wind Speed Gust Speed Precip Events Conditions
12:16 AM 8.6 °F -7.7 °F - N/A% 29.68 in 2.5 mi WNW 13.8 mph - 0.00 in Snow Light Snow
12:56 AM 9.1 °F -6.4 °F - N/A% 29.71 in 4.0 mi WNW 12.7 mph - 0.00 in Snow Light Snow
1:20 AM 8.6 °F -5.5 °F - N/A% 29.69 in 2.5 mi WNW 10.4 mph - 0.00 in Snow Light Snow
1:27 AM 8.6 °F -5.5 °F - N/A% 29.69 in 1.8 mi WNW 10.4 mph - 0.00 in Snow Light Snow
1:37 AM 8.6 °F -7.0 °F - N/A% 29.69 in 2.0 mi WNW 12.7 mph - 0.00 in Snow Light Snow
1:46 AM 8.6 °F -6.3 °F - N/A% 29.69 in 3.0 mi WNW 11.5 mph - 0.00 in Snow Light Snow
1:56 AM 9.1 °F -6.4 °F - N/A% 29.73 in 5.0 mi WNW 12.7 mph - 0.00 in Snow Light Snow
2:48 AM 8.6 °F -6.3 °F - N/A% 29.70 in 7.0 mi West 11.5 mph - 0.00 in Snow Light Snow
2:56 AM 8.6 °F -6.3 °F - N/A% 29.71 in 4.0 mi West 11.5 mph - N/A Snow Light Snow
3:13 AM 8.6 °F -6.3 °F - N/A% 29.70 in 2.5 mi West 11.5 mph - 0.00 in Snow Light Snow
3:24 AM 8.6 °F -4.7 °F - N/A% 29.71 in 2.5 mi West 9.2 mph - 0.00 in Snow Light Snow
3:29 AM 8.6 °F -6.3 °F - N/A% 29.71 in 1.8 mi West 11.5 mph - 0.00 in Snow Light Snow
3:38 AM 8.6 °F -5.5 °F - N/A% 29.70 in 2.0 mi West 10.4 mph - 0.00 in Snow Light Snow
3:56 AM 9.1 °F -5.6 °F - N/A% 29.75 in 5.0 mi West 11.5 mph - 0.00 in Snow Light Snow
4:06 AM 8.6 °F -7.0 °F - N/A% 29.71 in 7.0 mi West 12.7 mph - 0.00 in Snow Light Snow
4:56 AM 9.1 °F -4.9 °F - N/A% 29.76 in 5.0 mi West 10.4 mph - 0.00 in Snow Light Snow
5:56 AM 10.4 °F -4.1 °F - N/A% 29.73 in 10.0 mi WNW 11.5 mph - N/A Snow Light Snow
7:56 AM 13.1 °F 0.1 °F - N/A% 29.80 in 6.0 mi WNW 10.4 mph - 0.00 in Snow Light Snow
8:28 AM 14.0 °F 1.2 °F - N/A% 29.76 in 2.5 mi NW 10.4 mph - 0.00 in Snow Light Snow
8:38 AM 14.0 °F -0.2 °F - N/A% 29.77 in 1.8 mi WNW 12.7 mph - 0.00 in Snow Light Snow
8:43 AM 14.0 °F 1.2 °F - N/A% 29.77 in 2.0 mi NW 10.4 mph - 0.00 in Snow Light Snow
8:56 AM 14.0 °F 2.0 °F - N/A% 29.78 in 1.5 mi NNW 9.2 mph - N/A Snow Light Snow
9:18 AM 15.8 °F 3.4 °F - N/A% 29.79 in 2.0 mi NW 10.4 mph 19.6 mph 0.00 in Snow Light Snow
9:21 AM 15.8 °F 2.7 °F - N/A% 29.79 in 3.0 mi NW 11.5 mph 18.4 mph 0.00 in Snow Light Snow
9:42 AM 15.8 °F 2.7 °F - N/A% 29.79 in 10.0 mi NW 11.5 mph 18.4 mph 0.00 in   Overcast
9:56 AM 15.1 °F 1.8 °F - N/A% 29.84 in 10.0 mi NNW 11.5 mph - 0.00 in   Overcast
10:56 AM 17.1 °F 5.8 °F - N/A% 29.85 in 10.0 mi NNW 9.2 mph - N/A   Overcast
11:56 AM 18.1 °F 5.6 °F - N/A% 29.85 in 10.0 mi NNW 11.5 mph - 0.00 in Snow Light Snow
12:56 PM 19.0 °F 6.8 °F - N/A% 29.85 in 10.0 mi NW 11.5 mph 18.4 mph 0.00 in   Overcast
1:56 PM 20.1 °F 8.1 °F - N/A% 29.86 in 10.0 mi NW 11.5 mph 20.7 mph 0.00 in   Overcast
2:08 PM 19.4 °F 7.2 °F - N/A% 29.82 in 10.0 mi NW 11.5 mph 21.9 mph N/A   Overcast
2:23 PM 19.4 °F 6.6 °F - N/A% 29.83 in 10.0 mi NW 12.7 mph 17.3 mph N/A   Overcast
2:56 PM 19.4 °F 7.9 °F - N/A% 29.84 in 10.0 mi NW 10.4 mph - N/A   Overcast
3:56 PM 19.0 °F 7.5 °F - N/A% 29.91 in 10.0 mi WNW 10.4 mph - 0.00 in Snow Light Snow
4:56 PM 17.1 °F 4.3 °F - N/A% 29.93 in 10.0 mi WNW 11.5 mph - 0.00 in   Overcast
5:56 PM 17.1 °F 5.8 °F - N/A% 29.94 in 10.0 mi WNW 9.2 mph - 0.00 in   Overcast
6:56 PM 17.1 °F 6.6 °F - N/A% 29.95 in 10.0 mi NW 8.1 mph - 0.00 in   Overcast
7:56 PM 16.2 °F 3.9 °F - N/A% 29.96 in 10.0 mi NW 10.4 mph - N/A   Overcast
8:56 PM 10.4 °F -0.4 °F - N/A% 29.92 in 10.0 mi West 6.9 mph - N/A   Mostly Cloudy
9:56 PM 6.1 °F -6.8 °F - N/A% 29.97 in 10.0 mi West 8.1 mph - N/A   Clear
10:56 PM 2.1 °F -9.0 °F - N/A% 29.96 in 10.0 mi West 5.8 mph - N/A   Clear
11:56 PM 1.0 °F - - N/A% 29.93 in 10.0 mi Calm Calm - N/A   Clear